FW9852 Weather Reports


time (UTC)temp
F
wind
direction
speed
knots
gust
knots
rain 1hr
in
rain 24hr
in
rain mn
in
humidity
%
barometer
mb
20260906034602 51 0 0.0 1.7 0.00 0.25 0.00 97 1003.3
20260906033101 51 215 0.0 1.7 0.00 0.25 0.00 97 1003.0
20260906031607 50 208 0.0 1.7 0.00 0.25 0.00 97 1003.0
20260906024608 48 0 0.0 0.0 0.00 0.26 0.00 96 1002.7
20260906023105 49 0 0.0 0.9 0.00 0.26 0.00 96 1002.5
20260906021608 49 0 0.0 1.7 0.00 0.26 0.00 96 1002.4
20260906020107 49 0 0.0 0.9 0.00 0.26 0.00 96 1002.2
20260906014604 49 0 0.0 1.7 0.00 0.26 0.00 96 1002.1
20260906013104 50 0 0.0 1.7 0.00 0.26 0.00 96 1002.2
20260906011602 50 216 0.0 1.7 0.00 0.26 0.00 96 1002.1
20260906010104 50 0 0.0 0.9 0.00 0.26 0.00 96 1001.9
20260906004604 50 274 0.0 1.7 0.00 0.27 0.00 96 1001.8
20260906003108 50 0 0.0 1.7 0.00 0.27 0.00 96 1001.8
20260906001603 50 275 0.0 1.7 0.00 0.27 0.00 96 1001.7
20260906000108 50 0 0.0 0.9 0.00 0.27 0.00 96 1001.5
20260905234603 50 0 0.0 0.9 0.00 0.29 0.00 95 1001.5
20260905233107 51 275 0.0 0.9 0.00 0.29 0.00 95 1001.5
20260905231609 51 0 0.0 0.9 0.00 0.29 0.00 95 1001.4
20260905230112 51 267 0.0 1.7 0.00 0.29 0.00 95 1001.3
20260905224611 51 262 0.0 1.7 0.00 0.31 0.00 95 1001.3
20260905223107 52 0 0.0 1.7 0.00 0.31 0.00 94 1001.3
20260905221607 52 0 0.0 2.6 0.00 0.31 0.00 95 1001.2
20260905220110 52 267 0.0 1.7 0.00 0.31 0.00 94 1001.0
20260905214603 53 265 0.9 2.6 0.00 0.37 0.00 94 1000.9
20260905213105 53 0 0.0 1.7 0.00 0.37 0.00 94 1000.7
20260905211630 54 256 0.9 3.5 0.00 0.37 0.00 94 1000.7
20260905210124 54 0 0.0 2.6 0.00 0.37 0.00 94 1000.5
20260905204607 54 296 0.0 2.6 0.00 0.37 0.37 94 1000.4
20260905203119 55 296 0.9 2.6 0.00 0.37 0.37 94 1000.3
20260905201604 55 301 0.0 3.5 0.00 0.37 0.37 94 1000.1
20260905200107 55 305 0.9 2.6 0.00 0.37 0.37 94 1000.1
20260905194608 55 282 0.9 2.6 0.00 0.52 0.37 94 999.8
20260905193108 55 269 1.7 2.6 0.00 0.51 0.36 94 999.8
20260905191605 55 254 0.9 1.7 0.00 0.51 0.36 93 999.5
20260905190105 55 0 0.0 1.7 0.00 0.51 0.36 92 999.6
20260905184610 55 0 0.0 0.9 0.00 0.55 0.36 93 999.5
20260905183107 56 0 0.0 1.7 0.00 0.55 0.36 93 999.5
20260905181612 56 291 0.0 1.7 0.00 0.55 0.36 93 999.4
20260905180108 56 291 0.0 0.9 0.00 0.55 0.36 93 999.3
20260905174604 56 0 0.0 0.0 0.00 0.55 0.36 92 999.1
20260905173105 56 0 0.0 0.0 0.00 0.55 0.36 92 999.0
20260905171603 56 0 0.0 0.0 0.00 0.55 0.36 91 998.8
20260905170108 56 0 0.0 0.9 0.00 0.55 0.36 91 998.7
20260905164606 56 0 0.0 0.9 0.00 0.55 0.36 89 998.6
20260905163109 56 0 0.0 0.9 0.00 0.55 0.36 89 998.4
20260905161604 57 0 0.0 1.7 0.00 0.55 0.36 88 998.5
20260905160137 57 0 0.0 1.7 0.00 0.55 0.36 87 998.3
20260905154604 57 0 0.0 1.7 0.00 0.55 0.36 88 998.3
20260905153103 57 0 0.0 0.9 0.00 0.55 0.36 87 998.1
20260905151608 57 0 0.0 1.7 0.00 0.55 0.36 86 998.0
20260905150104 58 0 0.9 3.5 0.00 0.55 0.36 84 998.0
20260905144609 62 0 0.9 6.1 0.00 0.55 0.36 79 997.9
20260905143112 63 298 1.7 6.1 0.00 0.55 0.36 80 997.3
20260905141606 62 285 0.9 5.2 0.00 0.55 0.36 85 997.3
20260905140105 61 279 0.9 5.2 0.00 0.55 0.36 84 997.2
20260905134622 60 244 1.7 3.5 0.00 0.55 0.36 86 997.1
20260905133101 60 277 1.7 3.5 0.00 0.55 0.36 85 997.2
20260905131606 58 241 0.0 1.7 0.02 0.55 0.36 86 997.0
20260905124602 57 0 0.0 0.9 0.02 0.55 0.36 86 996.8
20260905123105 58 340 0.0 7.0 0.01 0.55 0.35 84 996.7
20260905121602 60 281 1.7 5.2 0.00 0.53 0.33 84 996.5
20260905120120 62 292 2.6 7.0 0.00 0.53 0.33 81 996.1
20260905114605 63 321 3.5 7.8 0.00 0.53 0.33 80 995.9
20260905113120 64 292 3.5 9.6 0.00 0.53 0.33 78 995.8
20260905111615 64 228 2.6 6.1 0.00 0.53 0.33 77 995.8
20260905110109 62 267 1.7 6.1 0.00 0.53 0.33 79 995.8
20260905104603 63 302 3.5 7.0 0.00 0.53 0.33 77 995.5
20260905103102 62 327 2.6 6.1 0.00 0.53 0.33 77 995.6
20260905101606 62 265 1.7 6.1 0.00 0.53 0.33 82 995.4
20260905100110 61 288 2.6 7.0 0.00 0.53 0.33 83 995.5
20260905094607 60 292 0.9 4.3 0.00 0.53 0.33 83 995.5
20260905093102 59 315 1.7 7.0 0.00 0.53 0.33 87 995.4
20260905091624 59 276 1.7 5.2 0.00 0.53 0.33 88 995.2
20260905090121 58 288 1.7 5.2 0.00 0.53 0.33 90 995.2
20260905084610 58 267 1.7 5.2 0.00 0.55 0.33 91 995.1
20260905083101 57 273 0.9 5.2 0.00 0.55 0.33 92 995.0
20260905081603 57 336 0.9 3.5 0.00 0.55 0.33 93 994.9
20260905080106 57 322 1.7 3.5 0.01 0.55 0.33 95 994.8
20260905074603 56 279 0.9 3.5 0.03 0.58 0.33 96 994.8
20260905073107 55 309 1.7 6.1 0.03 0.57 0.33 95 994.8
20260905071612 55 273 1.7 5.2 0.04 0.57 0.33 96 994.6
20260905070124 55 273 1.7 4.3 0.06 0.56 0.32 96 994.4
20260905064615 55 288 2.6 7.0 0.07 0.55 0.30 96 994.3
20260905063102 54 284 2.6 5.2 0.06 0.53 0.29 96 994.2
20260905061624 54 271 1.7 3.5 0.07 0.52 0.28 96 994.0
20260905060119 54 0 0.0 2.6 0.07 0.50 0.25 96 994.0
20260905054605 54 300 0.0 3.5 0.06 0.49 0.23 96 993.7
20260905053058 55 292 1.7 3.5 0.05 0.48 0.22 96 993.6
20260905051608 55 293 1.7 4.3 0.04 0.46 0.20 97 993.6
20260905044603 55 0 0.0 2.6 0.05 0.45 0.17 97 993.4
20260905043100 55 0 0.0 1.7 0.05 0.45 0.17 97 993.3
20260905041608 55 276 0.9 1.7 0.04 0.44 0.15 97 993.4
20260905040105 55 0 0.0 0.9 0.00 0.40 0.11 97 993.2